| time (UTC) | temp F | wind direction | speed MPH | gust MPH | rain 1hr in | rain 24hr in | rain mn in | humidity % | barometer mb |
| 20260906110903 | 69 | 0 | 0.0 | 0.0 | 0.00 | 0.15 | 0.00 | 99 | 1015.9 |
| 20260906110003 | 69 | 0 | 0.0 | 0.0 | 0.00 | 0.15 | 0.00 | 98 | 1016.1 |
| 20260906105403 | 69 | 0 | 0.0 | 0.0 | 0.00 | 0.15 | 0.00 | 98 | 1016.1 |
| 20260906104503 | 69 | 0 | 0.0 | 0.0 | 0.00 | 0.15 | 0.00 | 98 | 1016.1 |
| 20260906103603 | 69 | 0 | 0.0 | 0.0 | 0.00 | 0.15 | 0.00 | 99 | 1016.0 |
| 20260906102703 | 69 | 0 | 0.0 | 0.0 | 0.00 | 0.15 | 0.00 | 98 | 1015.9 |
| 20260906101803 | 69 | 0 | 0.0 | 0.0 | 0.00 | 0.15 | 0.00 | 98 | 1015.8 |
| 20260906100904 | 69 | 0 | 0.0 | 0.0 | 0.00 | 0.15 | 0.00 | 98 | 1015.7 |
| 20260906100003 | 70 | 0 | 0.0 | 0.0 | 0.00 | 0.15 | 0.00 | 98 | 1015.6 |
| 20260906095403 | 70 | 0 | 0.0 | 0.0 | 0.00 | 0.15 | 0.00 | 98 | 1015.5 |
| 20260906094503 | 70 | 0 | 0.0 | 0.0 | 0.00 | 0.15 | 0.00 | 98 | 1015.5 |
| 20260906093603 | 70 | 0 | 0.0 | 0.0 | 0.00 | 0.15 | 0.00 | 98 | 1015.5 |
| 20260906092703 | 70 | 0 | 0.0 | 0.0 | 0.00 | 0.15 | 0.00 | 98 | 1015.5 |
| 20260906091803 | 70 | 0 | 0.0 | 0.0 | 0.00 | 0.15 | 0.00 | 98 | 1015.4 |
| 20260906090903 | 70 | 0 | 0.0 | 0.0 | 0.00 | 0.15 | 0.00 | 98 | 1015.4 |
| 20260906090003 | 70 | 0 | 0.0 | 0.0 | 0.00 | 0.15 | 0.00 | 98 | 1015.4 |
| 20260906085403 | 70 | 0 | 0.0 | 0.0 | 0.00 | 0.15 | 0.00 | 98 | 1015.4 |
| 20260906084503 | 70 | 0 | 0.0 | 0.0 | 0.00 | 0.15 | 0.00 | 98 | 1015.5 |
| 20260906083603 | 70 | 0 | 0.0 | 0.0 | 0.00 | 0.15 | 0.00 | 97 | 1015.5 |
| 20260906082703 | 71 | 0 | 0.0 | 0.0 | 0.00 | 0.15 | 0.00 | 97 | 1015.4 |
| 20260906081803 | 71 | 0 | 0.0 | 0.0 | 0.00 | 0.15 | 0.00 | 98 | 1015.2 |
| 20260906080903 | 71 | 0 | 0.0 | 0.0 | 0.00 | 0.15 | 0.00 | 98 | 1015.3 |
| 20260906080003 | 71 | 0 | 0.0 | 0.0 | 0.00 | 0.15 | 0.00 | 98 | 1015.2 |
| 20260906075403 | 71 | 0 | 0.0 | 0.0 | 0.00 | 0.15 | 0.00 | 98 | 1015.2 |
| 20260906074503 | 71 | 0 | 0.0 | 0.0 | 0.00 | 0.15 | 0.00 | 98 | 1015.2 |
| 20260906073603 | 71 | 0 | 0.0 | 0.0 | 0.00 | 0.15 | 0.00 | 98 | 1015.1 |
| 20260906072703 | 71 | 0 | 0.0 | 0.0 | 0.00 | 0.15 | 0.00 | 98 | 1015.0 |
| 20260906071803 | 72 | 0 | 0.0 | 0.0 | 0.00 | 0.15 | 0.00 | 98 | 1014.9 |
| 20260906070903 | 72 | 0 | 0.0 | 0.0 | 0.00 | 0.15 | 0.00 | 97 | 1014.9 |
| 20260906070003 | 72 | 0 | 0.0 | 0.0 | 0.00 | 0.15 | 0.00 | 97 | 1014.8 |
| 20260906065403 | 72 | 0 | 0.0 | 0.0 | 0.00 | 0.15 | 0.00 | 97 | 1014.9 |
| 20260906064503 | 72 | 0 | 0.0 | 0.0 | 0.00 | 0.15 | 0.00 | 97 | 1014.9 |
| 20260906063603 | 72 | 0 | 0.0 | 0.0 | 0.00 | 0.15 | 0.00 | 97 | 1015.0 |
| 20260906062703 | 72 | 0 | 0.0 | 0.0 | 0.00 | 0.15 | 0.00 | 97 | 1015.0 |
| 20260906061803 | 72 | 0 | 0.0 | 0.0 | 0.00 | 0.15 | 0.00 | 97 | 1015.1 |
| 20260906060903 | 72 | 0 | 0.0 | 0.0 | 0.00 | 0.15 | 0.00 | 97 | 1015.2 |
| 20260906060003 | 72 | 0 | 0.0 | 0.0 | 0.00 | 0.15 | 0.00 | 97 | 1015.1 |
| 20260906055403 | 72 | 0 | 0.0 | 0.0 | 0.00 | 0.15 | 0.00 | 97 | 1015.0 |
| 20260906054503 | 72 | 0 | 0.0 | 0.0 | 0.00 | 0.15 | 0.00 | 96 | 1015.1 |
| 20260906053603 | 72 | 0 | 0.0 | 0.0 | 0.00 | 0.15 | 0.00 | 96 | 1015.0 |
| 20260906052703 | 72 | 0 | 0.0 | 0.0 | 0.00 | 0.15 | 0.00 | 95 | 1015.2 |
| 20260906051803 | 73 | 0 | 0.0 | 0.0 | 0.00 | 0.15 | 0.00 | 94 | 1015.3 |
| 20260906050903 | 73 | 0 | 0.0 | 0.0 | 0.00 | 0.15 | 0.00 | 94 | 1015.3 |
| 20260906050004 | 73 | 0 | 0.0 | 0.0 | 0.00 | 0.15 | 0.00 | 94 | 1015.4 |
| 20260906045403 | 73 | 0 | 0.0 | 0.0 | 0.00 | 0.15 | 0.15 | 94 | 1015.4 |
| 20260906044503 | 73 | 0 | 0.0 | 0.0 | 0.00 | 0.15 | 0.15 | 92 | 1015.4 |
| 20260906043603 | 73 | 0 | 0.0 | 0.0 | 0.00 | 0.15 | 0.15 | 92 | 1015.5 |
| 20260906042703 | 74 | 0 | 0.0 | 0.0 | 0.00 | 0.15 | 0.15 | 92 | 1015.5 |
| 20260906041803 | 74 | 189 | 1.0 | 3.0 | 0.00 | 0.15 | 0.15 | 91 | 1015.5 |
| 20260906040903 | 74 | 187 | 2.0 | 3.0 | 0.00 | 0.15 | 0.15 | 91 | 1015.7 |
| 20260906040003 | 74 | 188 | 2.0 | 4.0 | 0.00 | 0.15 | 0.15 | 91 | 1015.7 |
| 20260906035403 | 74 | 187 | 2.0 | 4.0 | 0.00 | 0.15 | 0.15 | 91 | 1015.7 |
| 20260906034503 | 74 | 186 | 3.0 | 6.0 | 0.00 | 0.15 | 0.15 | 92 | 1015.8 |
| 20260906033603 | 74 | 189 | 4.0 | 10.0 | 0.00 | 0.15 | 0.15 | 93 | 1015.8 |
| 20260906032703 | 74 | 190 | 4.0 | 5.0 | 0.00 | 0.15 | 0.15 | 94 | 1015.8 |
| 20260906031803 | 74 | 188 | 3.0 | 7.0 | 0.00 | 0.15 | 0.15 | 95 | 1015.7 |
| 20260906030903 | 74 | 180 | 1.0 | 4.0 | 0.00 | 0.15 | 0.15 | 95 | 1015.8 |
| 20260906030003 | 74 | 188 | 3.0 | 6.0 | 0.00 | 0.15 | 0.15 | 95 | 1015.8 |
| 20260906025403 | 74 | 181 | 2.0 | 5.0 | 0.00 | 0.15 | 0.15 | 96 | 1015.8 |
| 20260906024503 | 74 | 136 | 1.0 | 3.0 | 0.00 | 0.15 | 0.15 | 97 | 1015.7 |
| 20260906023603 | 74 | 142 | 0.0 | 3.0 | 0.01 | 0.15 | 0.15 | 97 | 1015.8 |
| 20260906022703 | 74 | 96 | 0.0 | 1.0 | 0.02 | 0.15 | 0.15 | 97 | 1015.5 |
| 20260906021803 | 74 | 0 | 0.0 | 0.0 | 0.02 | 0.15 | 0.15 | 97 | 1015.2 |
| 20260906020903 | 74 | 0 | 0.0 | 0.0 | 0.02 | 0.15 | 0.15 | 96 | 1015.2 |
| 20260906020003 | 74 | 149 | 1.0 | 6.0 | 0.02 | 0.15 | 0.15 | 96 | 1015.2 |
| 20260906015403 | 74 | 109 | 1.0 | 6.0 | 0.02 | 0.15 | 0.15 | 96 | 1015.2 |
| 20260906014503 | 74 | 89 | 1.0 | 3.0 | 0.02 | 0.15 | 0.15 | 96 | 1015.1 |
| 20260906013603 | 75 | 11 | 2.0 | 10.0 | 0.14 | 0.14 | 0.14 | 95 | 1015.3 |
| 20260906012703 | 75 | 347 | 0.0 | 5.0 | 0.13 | 0.13 | 0.13 | 95 | 1015.1 |
| 20260906011803 | 75 | 0 | 0.0 | 0.0 | 0.13 | 0.13 | 0.13 | 94 | 1014.7 |
| 20260906010903 | 76 | 315 | 0.0 | 2.0 | 0.13 | 0.13 | 0.13 | 91 | 1014.2 |
| 20260906010003 | 77 | 341 | 1.0 | 5.0 | 0.13 | 0.13 | 0.13 | 89 | 1014.2 |
| 20260906005403 | 78 | 349 | 2.0 | 7.0 | 0.13 | 0.13 | 0.13 | 85 | 1014.3 |
| 20260906004503 | 81 | 22 | 2.0 | 10.0 | 0.13 | 0.13 | 0.13 | 82 | 1013.9 |
| 20260906003603 | 85 | 10 | 3.0 | 11.0 | 0.00 | 0.00 | 0.00 | 79 | 1014.7 |
| 20260906002703 | 86 | 317 | 0.0 | 3.0 | 0.00 | 0.00 | 0.00 | 75 | 1013.5 |
| 20260906001803 | 86 | 0 | 0.0 | 0.0 | 0.00 | 0.00 | 0.00 | 75 | 1013.7 |
| 20260906000903 | 86 | 0 | 0.0 | 0.0 | 0.00 | 0.00 | 0.00 | 74 | 1013.7 |
| 20260906000003 | 87 | 0 | 0.0 | 0.0 | 0.00 | 0.00 | 0.00 | 74 | 1014.1 |
| 20260905235403 | 87 | 0 | 0.0 | 0.0 | 0.00 | 0.00 | 0.00 | 73 | 1014.2 |
| 20260905234503 | 88 | 0 | 0.0 | 0.0 | 0.00 | 0.00 | 0.00 | 71 | 1014.2 |
| 20260905233603 | 88 | 0 | 0.0 | 0.0 | 0.00 | 0.00 | 0.00 | 72 | 1014.2 |
| 20260905232703 | 89 | 0 | 0.0 | 0.0 | 0.00 | 0.00 | 0.00 | 70 | 1014.0 |
| 20260905231803 | 90 | 0 | 0.0 | 0.0 | 0.00 | 0.00 | 0.00 | 70 | 1014.0 |
| 20260905230903 | 90 | 0 | 0.0 | 0.0 | 0.00 | 0.00 | 0.00 | 68 | 1014.0 |
| 20260905230003 | 91 | 0 | 0.0 | 0.0 | 0.00 | 0.00 | 0.00 | 66 | 1013.9 |
| 20260905225403 | 91 | 0 | 0.0 | 0.0 | 0.00 | 0.00 | 0.00 | 66 | 1013.9 |
| 20260905224503 | 92 | 0 | 0.0 | 0.0 | 0.00 | 0.00 | 0.00 | 64 | 1013.7 |
| 20260905223603 | 93 | 0 | 0.0 | 0.0 | 0.00 | 0.00 | 0.00 | 62 | 1013.7 |
| 20260905222703 | 94 | 0 | 0.0 | 0.0 | 0.00 | 0.00 | 0.00 | 62 | 1013.7 |
| 20260905221803 | 94 | 356 | 0.0 | 1.0 | 0.00 | 0.00 | 0.00 | 60 | 1013.6 |
| 20260905220903 | 95 | 5 | 0.0 | 2.0 | 0.00 | 0.00 | 0.00 | 58 | 1013.8 |
| 20260905220003 | 96 | 353 | 1.0 | 5.0 | 0.00 | 0.00 | 0.00 | 58 | 1013.8 |
| 20260905215403 | 96 | 349 | 1.0 | 4.0 | 0.00 | 0.00 | 0.00 | 57 | 1013.9 |
| 20260905214503 | 97 | 344 | 1.0 | 4.0 | 0.00 | 0.00 | 0.00 | 54 | 1013.8 |
| 20260905213604 | 97 | 33 | 0.0 | 4.0 | 0.00 | 0.00 | 0.00 | 54 | 1013.9 |
| 20260905212703 | 97 | 351 | 1.0 | 4.0 | 0.00 | 0.00 | 0.00 | 54 | 1014.0 |
| 20260905211803 | 97 | 8 | 0.0 | 2.0 | 0.00 | 0.00 | 0.00 | 56 | 1014.1 |
| 20260905210903 | 97 | 349 | 1.0 | 3.0 | 0.00 | 0.00 | 0.00 | 54 | 1014.2 |
| 20260905210004 | 96 | 28 | 1.0 | 7.0 | 0.00 | 0.00 | 0.00 | 56 | 1014.1 |
| 20260905205403 | 96 | 23 | 2.0 | 7.0 | 0.00 | 0.00 | 0.00 | 57 | 1014.2 |
| 20260905204503 | 97 | 39 | 1.0 | 5.0 | 0.00 | 0.00 | 0.00 | 53 | 1014.4 |
| 20260905203603 | 98 | 53 | 1.0 | 4.0 | 0.00 | 0.00 | 0.00 | 53 | 1014.5 |
| 20260905202703 | 97 | 27 | 1.0 | 4.0 | 0.00 | 0.00 | 0.00 | 54 | 1014.6 |
| 20260905201803 | 98 | 12 | 1.0 | 8.0 | 0.00 | 0.00 | 0.00 | 54 | 1014.7 |
| 20260905200903 | 97 | 39 | 0.0 | 5.0 | 0.00 | 0.00 | 0.00 | 55 | 1014.8 |
| 20260905200003 | 97 | 5 | 1.0 | 5.0 | 0.00 | 0.00 | 0.00 | 56 | 1014.9 |
| 20260905195403 | 97 | 16 | 1.0 | 5.0 | 0.00 | 0.00 | 0.00 | 54 | 1014.9 |
| 20260905194503 | 97 | 351 | 1.0 | 4.0 | 0.00 | 0.00 | 0.00 | 58 | 1015.0 |
| 20260905193603 | 97 | 262 | 2.0 | 7.0 | 0.00 | 0.00 | 0.00 | 54 | 1015.2 |
| 20260905192703 | 96 | 222 | 1.0 | 5.0 | 0.00 | 0.00 | 0.00 | 56 | 1015.3 |
| 20260905191803 | 96 | 35 | 2.0 | 4.0 | 0.00 | 0.00 | 0.00 | 55 | 1015.4 |
| 20260905190903 | 96 | 103 | 2.0 | 5.0 | 0.00 | 0.00 | 0.00 | 57 | 1015.5 |
| 20260905190003 | 96 | 2 | 1.0 | 5.0 | 0.00 | 0.00 | 0.00 | 56 | 1015.7 |
| 20260905185403 | 96 | 256 | 0.0 | 2.0 | 0.00 | 0.00 | 0.00 | 58 | 1015.8 |
| 20260905184503 | 97 | 344 | 1.0 | 3.0 | 0.00 | 0.00 | 0.00 | 57 | 1015.8 |
| 20260905183603 | 96 | 337 | 1.0 | 4.0 | 0.00 | 0.00 | 0.00 | 57 | 1015.9 |
| 20260905182704 | 96 | 32 | 1.0 | 3.0 | 0.00 | 0.00 | 0.00 | 60 | 1016.3 |
| 20260905181803 | 96 | 38 | 2.0 | 6.0 | 0.00 | 0.00 | 0.00 | 60 | 1016.4 |
| 20260905180903 | 96 | 323 | 1.0 | 3.0 | 0.00 | 0.00 | 0.00 | 60 | 1016.5 |
| 20260905180003 | 96 | 276 | 1.0 | 3.0 | 0.00 | 0.00 | 0.00 | 58 | 1016.6 |
| 20260905175404 | 96 | 90 | 1.0 | 6.0 | 0.00 | 0.00 | 0.00 | 59 | 1016.5 |
| 20260905174503 | 96 | 209 | 1.0 | 4.0 | 0.00 | 0.00 | 0.00 | 63 | 1016.6 |
| 20260905173603 | 95 | 151 | 1.0 | 4.0 | 0.00 | 0.00 | 0.00 | 61 | 1016.7 |
| 20260905172703 | 94 | 39 | 1.0 | 4.0 | 0.00 | 0.00 | 0.00 | 59 | 1016.8 |
| 20260905171803 | 94 | 25 | 1.0 | 5.0 | 0.00 | 0.00 | 0.00 | 59 | 1016.9 |
| 20260905170903 | 94 | 42 | 1.0 | 4.0 | 0.00 | 0.00 | 0.00 | 63 | 1017.1 |
| 20260905170003 | 94 | 57 | 1.0 | 5.0 | 0.00 | 0.00 | 0.00 | 63 | 1017.3 |
| 20260905165403 | 94 | 89 | 1.0 | 5.0 | 0.00 | 0.00 | 0.00 | 61 | 1017.2 |
| 20260905164503 | 94 | 154 | 2.0 | 6.0 | 0.00 | 0.00 | 0.00 | 62 | 1017.1 |
| 20260905163603 | 94 | 146 | 2.0 | 4.0 | 0.00 | 0.00 | 0.00 | 64 | 1017.3 |
| 20260905162703 | 93 | 120 | 2.0 | 7.0 | 0.00 | 0.00 | 0.00 | 64 | 1017.4 |
| 20260905161803 | 92 | 79 | 2.0 | 7.0 | 0.00 | 0.00 | 0.00 | 67 | 1017.5 |
| 20260905160903 | 92 | 87 | 1.0 | 4.0 | 0.00 | 0.00 | 0.00 | 65 | 1017.5 |
| 20260905160003 | 92 | 27 | 2.0 | 9.0 | 0.00 | 0.00 | 0.00 | 67 | 1017.6 |
| 20260905155403 | 92 | 89 | 1.0 | 9.0 | 0.00 | 0.00 | 0.00 | 66 | 1017.6 |
| 20260905154503 | 92 | 103 | 2.0 | 8.0 | 0.00 | 0.00 | 0.00 | 66 | 1017.5 |
| 20260905153603 | 91 | 61 | 1.0 | 7.0 | 0.00 | 0.00 | 0.00 | 68 | 1017.7 |
| 20260905152703 | 91 | 40 | 1.0 | 5.0 | 0.00 | 0.00 | 0.00 | 74 | 1017.7 |
| 20260905151803 | 90 | 10 | 2.0 | 8.0 | 0.00 | 0.00 | 0.00 | 71 | 1017.8 |
| 20260905150903 | 90 | 28 | 2.0 | 8.0 | 0.00 | 0.00 | 0.00 | 72 | 1017.8 |
| 20260905150003 | 90 | 45 | 3.0 | 8.0 | 0.00 | 0.00 | 0.00 | 71 | 1017.8 |
| 20260905145403 | 89 | 8 | 3.0 | 8.0 | 0.00 | 0.00 | 0.00 | 71 | 1017.7 |
| 20260905144503 | 89 | 359 | 2.0 | 4.0 | 0.00 | 0.00 | 0.00 | 69 | 1017.6 |
| 20260905143603 | 88 | 6 | 2.0 | 8.0 | 0.00 | 0.00 | 0.00 | 74 | 1017.6 |
| 20260905142703 | 88 | 9 | 3.0 | 8.0 | 0.00 | 0.00 | 0.00 | 73 | 1017.6 |
| 20260905141803 | 87 | 13 | 2.0 | 6.0 | 0.00 | 0.00 | 0.00 | 77 | 1017.6 |
| 20260905140903 | 86 | 20 | 1.0 | 4.0 | 0.00 | 0.00 | 0.00 | 78 | 1017.6 |
| 20260905140004 | 86 | 17 | 1.0 | 4.0 | 0.00 | 0.00 | 0.00 | 80 | 1017.7 |
| 20260905135403 | 85 | 0 | 0.0 | 0.0 | 0.00 | 0.00 | 0.00 | 79 | 1017.6 |
| 20260905134503 | 84 | 0 | 0.0 | 0.0 | 0.00 | 0.00 | 0.00 | 83 | 1017.6 |
| 20260905133603 | 81 | 0 | 0.0 | 0.0 | 0.00 | 0.00 | 0.00 | 88 | 1017.8 |
| 20260905132703 | 79 | 0 | 0.0 | 0.0 | 0.00 | 0.00 | 0.00 | 92 | 1017.9 |
| 20260905131803 | 78 | 0 | 0.0 | 0.0 | 0.00 | 0.00 | 0.00 | 94 | 1017.9 |
| 20260905130903 | 77 | 0 | 0.0 | 0.0 | 0.00 | 0.00 | 0.00 | 95 | 1017.9 |
| 20260905130003 | 76 | 0 | 0.0 | 0.0 | 0.00 | 0.00 | 0.00 | 96 | 1017.9 |
| 20260905125403 | 76 | 0 | 0.0 | 0.0 | 0.00 | 0.00 | 0.00 | 96 | 1018.0 |
| 20260905124503 | 75 | 0 | 0.0 | 0.0 | 0.00 | 0.00 | 0.00 | 96 | 1017.9 |
| 20260905123603 | 75 | 0 | 0.0 | 0.0 | 0.00 | 0.00 | 0.00 | 96 | 1017.9 |
| 20260905122703 | 74 | 0 | 0.0 | 0.0 | 0.00 | 0.00 | 0.00 | 96 | 1017.8 |
| 20260905121803 | 74 | 0 | 0.0 | 0.0 | 0.00 | 0.00 | 0.00 | 96 | 1017.8 |
| 20260905120903 | 74 | 0 | 0.0 | 0.0 | 0.00 | 0.00 | 0.00 | 96 | 1017.7 |
| 20260905120003 | 74 | 0 | 0.0 | 0.0 | 0.00 | 0.00 | 0.00 | 96 | 1017.7 |
| 20260905115403 | 74 | 0 | 0.0 | 0.0 | 0.00 | 0.00 | 0.00 | 96 | 1017.7 |
| 20260905114503 | 74 | 0 | 0.0 | 0.0 | 0.00 | 0.00 | 0.00 | 96 | 1017.4 |
| 20260905113603 | 74 | 0 | 0.0 | 0.0 | 0.00 | 0.00 | 0.00 | 96 | 1017.3 |
| 20260905112703 | 74 | 0 | 0.0 | 0.0 | 0.00 | 0.00 | 0.00 | 96 | 1017.1 |
| 20260905111803 | 74 | 0 | 0.0 | 0.0 | 0.00 | 0.00 | 0.00 | 96 | 1017.0 |